Terminal Aerodrome Forecast
Issued by NWS

Home | Current Version | Previous Version | Text Only | Print | Product List | Glossary On
Versions: 1 2 3 4 5 6 7 8 9 10 11 12 13 14 15 16 17 18 19 20 21 22 23 24
000
FTUS44 KOUN 300526
TAFPNC
TAF
KPNC 300526Z 3006/3106 04010KT P6SM SCT080 BKN150
     FM301500 07009KT P6SM BKN150 PROB30 3015/3021 4SM TSRA
      BKN040CB=

USA.gov is the U.S. government's official web portal to all federal, state and local government web resources and services.